Temp
62 53 52 56 59 58 56 54 52 57 64 62 61 63 68 73 75 75 79 81 83 85 91 93 93 94 90 88 84 79 81 82 81 83 85 87 87 88 89 90 86 86 86 82
54 48 59 61 60 57 55 52 52 57 61 61 60 60 67 71 73 75 76 79 82 85 88 89 90 90 82 83 79 80 82 78 79 84 85 89 89 89 90 89 86 86 84 83
45 53 60 56 54 52 53 50 50 50 57 61 58 56 61 68 71 74 77 80 83 84 86 87 88 87 81 79 81 82 82 77 81 83 84 84 85 86 86 85 86 85 84 79
50 59 56 54 49 50 43 56 54 52 50 45 59 45 59 65 67 70 74 78 81 84 87 88 87 79 81 82 85 84 82 78 80 80 81 78 84 83 77 74 72 71 75 73
49 54 50 48 50 54 47 57 53 52 49 49 51 50 58 67 65 68 73 79 82 85 87 87 87 84 86 86 86 83 77 78 78 81 79 81 74 71 73 74 74 72 72 76
54 62 58 55 56 56 56 53 52 51 48 37 48 51 54 61 64 70 76 80 83 86 87 88 88 88 89 89 87 84 79 78 80 80 80 72 71 72 75 77 78 79 78 75
51 55 59 56 51 55 54 45 34 30 30 35 52 48 55 66 71 74 76 80 84 86 87 87 86 86 88 88 87 77 77 76 77 76 75 75 76 77 77 78 81 79 78 74
37 39 52 56 52 46 49 48 40 28 34 41 52 43 55 68 74 76 75 79 84 85 87 88 87 87 88 87 85 76 73 73 76 77 76 78 78 81 82 82 81 80 67 71
38 36 55 56 56 52 46 41 55 41 47 41 48 54 63 69 69 71 72 75 80 84 86 88 87 87 88 85 81 77 73 75 77 77 79 79 80 81 81 77 73 66 69 69
38 35 52 53 55 56 48 53 39 41 31 31 46 49 51 59 64 69 72 75 79 84 87 88 87 85 85 79 78 74 73 77 77 80 79 79 79 80 77 71 69 70 69 68
39 36 43 48 45 46 42 41 47 46 45 35 38 49 64 64 67 69 73 77 80 83 87 88 88 85 84 81 72 71 74 75 75 73 76 72 72 70 73 70 69 66 66 66
42 36 33 41 54 56 50 47 48 41 39 45 42 42 66 68 72 74 75 77 82 84 87 89 86 82 82 68 67 68 69 68 68 69 68 65 67 69 69 68 67 67 65 65
38 34 32 39 45 47 40 41 50 48 47 41 39 45 59 68 71 75 76 79 78 80 85 86 82 79 66 65 66 67 67 66 66 67 68 68 68 66 64 64 64 64 66 64
41 34 35 34 39 39 36 39 46 43 36 44 48 48 51 52 62 72 73 77 77 78 81 72 69 65 63 63 64 65 66 66 64 66 67 67 67 63 60 61 64 63 68 67
37 33 40 43 45 45 43 43 37 40 47 41 48 47 42 48 49 63 73 74 76 78 65 64 61 59 59 60 62 64 65 64 64 64 64 63 63 59 60 62 65 66 65 66
37 34 37 36 43 40 36 43 47 43 45 49 52 46 47 53 57 62 71 73 73 61 60 59 58 58 57 59 60 61 63 64 66 64 63 63 63 66 65 63 64 65 64 64
32 34 35 36 38 36 34 44 49 50 52 54 44 44 49 48 51 64 68 70 63 58 56 56 56 56 57 58 59 60 62 66 66 65 66 68 67 65 65 65 65 63 62 63
33 32 35 35 36 30 43 57 57 53 55 57 52 46 47 46 47 55 63 58 55 55 54 54 54 54 55 56 58 60 64 67 68 68 68 68 67 65 64 63 62 61 62 61
41 34 34 32 34 35 40 43 45 48 50 57 50 49 47 48 50 45 51 53 52 52 52 52 53 53 54 56 58 62 64 63 64 64 66 67 67 64 63 62 61 62 61 61
42 39 34 36 34 31 36 45 51 54 45 58 53 49 48 48 41 42 48 49 48 49 50 50 52 52 54 55 60 62 61 63 64 66 66 66 66 63 61 61 61 61 62 61
38 39 35 37 36 38 41 42 56 39 42 58 58 54 51 44 45 46 48 47 49 49 49 51 52 52 55 59 62 61 61 62 64 64 64 63 62 61 60 60 61 61 60 60
32 31 33 36 34 31 42 45 39 42 54 57 54 53 46 45 46 45 46 46 46 47 47 49 50 54 58 60 62 60 58 61 62 61 60 59 59 61 61 59 59 60 59 59
32 33 30 32 34 36 40 41 45 50 52 51 51 50 47 45 44 44 44 45 46 46 47 49 51 52 54 57 59 57 57 59 59 58 57 58 60 60 60 59 59 60 60 61
37 36 33 34 35 36 40 43 45 50 50 51 50 48 48 45 44 44 43 44 44 46 48 52 54 54 55 57 57 56 56 57 57 55 56 57 57 58 60 62 61 61 60 60
34 34 33 35 37 39 38 42 43 46 48 47 48 47 44 45 45 45 43 45 46 48 51 54 55 54 53 54 53 55 56 57 56 56 57 57 57 56 54 52 54 53 48 47
34 32 31 32 37 36 38 41 43 42 44 46 45 44 45 45 44 45 44 46 48 49 53 53 51 50 52 54 55 56 58 58 56 56 57 57 57 57 55 52 48 39 39 38
MSLP
1007.47 1007.83 1006.40 1005.88 1005.53 1005.46 1005.21 1004.57 1003.84 1003.56 1003.02 1002.18 1000.92 1000.14 999.82 999.65 999.08 998.72 998.16 997.87 997.74 997.71 997.80 998.29 998.89 999.35 1000.37 1001.65 1002.78 1004.15 1005.17 1005.91 1006.82 1007.70 1007.86 1008.35 1008.83 1009.49 1010.04 1010.36 1011.15 1011.50 1011.86 1012.47
1007.11 1006.48 1005.88 1005.71 1005.48 1005.19 1004.85 1004.38 1003.61 1003.53 1003.39 1002.09 1001.11 1000.17 999.56 999.08 998.72 998.70 998.25 997.61 997.28 997.21 997.30 997.89 998.57 999.09 1000.47 1001.46 1002.67 1003.89 1004.88 1005.79 1006.87 1007.25 1007.55 1007.87 1008.48 1009.42 1009.83 1010.55 1011.12 1011.44 1011.98 1012.54
1006.96 1006.09 1005.50 1005.62 1005.29 1004.92 1004.61 1004.15 1003.66 1003.72 1003.02 1002.69 1001.66 1000.19 999.39 998.97 999.07 998.65 997.89 997.47 997.10 996.79 996.68 997.46 997.96 998.88 1000.41 1001.35 1002.11 1003.11 1004.25 1005.46 1006.25 1006.77 1007.75 1008.55 1009.08 1009.70 1010.23 1010.80 1011.10 1011.39 1011.74 1012.59
1006.32 1005.42 1005.00 1004.85 1004.76 1005.16 1004.42 1003.91 1003.92 1003.81 1003.26 1001.79 1001.42 998.80 997.73 997.64 997.21 997.49 997.08 996.58 996.45 996.39 996.36 996.84 997.59 999.17 1000.08 1000.98 1001.72 1002.78 1004.03 1005.30 1006.16 1006.76 1006.87 1008.20 1008.56 1009.22 1010.80 1011.69 1012.28 1012.62 1012.73 1013.22
1005.32 1004.67 1004.70 1004.63 1004.38 1004.35 1004.34 1004.14 1004.08 1003.80 1003.21 1002.13 1000.45 998.70 996.30 995.92 995.04 995.60 995.46 995.06 995.32 995.72 995.82 996.29 997.05 998.61 999.37 1000.25 1001.25 1002.69 1004.25 1005.19 1006.09 1006.36 1007.00 1006.72 1009.84 1011.00 1011.56 1012.07 1012.23 1012.80 1013.07 1012.72
1005.33 1004.77 1004.42 1004.15 1004.09 1004.09 1004.33 1004.16 1004.09 1004.05 1003.36 1001.43 1000.15 998.06 995.76 994.75 994.61 994.25 993.78 994.03 994.39 994.84 995.24 995.98 996.87 997.76 998.44 999.61 1001.01 1002.51 1004.17 1005.09 1005.81 1005.73 1006.33 1008.23 1010.17 1011.00 1011.36 1011.27 1011.52 1011.81 1012.24 1012.88
1004.63 1003.71 1003.65 1004.56 1004.01 1004.05 1004.06 1004.13 1003.85 1003.75 1002.77 1000.28 999.15 997.82 995.42 994.24 993.84 993.53 993.08 993.17 993.67 994.18 994.70 995.43 996.35 997.25 998.00 999.12 1000.42 1002.85 1003.71 1004.26 1005.19 1005.97 1007.75 1008.93 1009.89 1010.22 1010.56 1010.62 1010.80 1011.71 1012.60 1013.42
1005.61 1004.04 1003.68 1003.72 1003.63 1003.44 1003.30 1003.36 1002.10 1001.27 1000.17 998.87 998.16 996.01 994.75 994.31 993.51 993.56 993.63 993.12 993.17 993.71 994.27 994.97 995.91 996.91 997.86 999.17 1000.54 1002.48 1003.73 1004.74 1005.61 1006.56 1008.10 1009.02 1009.53 1009.86 1010.17 1010.56 1011.55 1012.36 1013.91 1014.53
1006.53 1005.40 1003.96 1003.72 1003.35 1003.81 1003.12 1003.11 1001.97 1001.68 999.99 998.49 996.58 995.98 994.41 994.05 994.07 994.07 994.07 993.82 992.79 993.12 993.64 994.42 995.68 996.64 997.57 999.28 1001.06 1002.62 1003.89 1005.02 1005.86 1007.00 1007.83 1008.51 1009.23 1009.70 1010.13 1011.66 1012.99 1014.23 1014.80 1015.44
1008.44 1006.43 1004.08 1003.56 1003.49 1003.08 1003.30 1002.95 1002.46 1002.18 1000.21 997.86 995.41 994.24 993.52 993.35 992.99 993.23 993.20 992.96 992.80 992.77 993.33 994.13 995.50 996.70 998.13 1000.15 1001.53 1003.01 1004.27 1005.18 1006.11 1006.91 1007.70 1008.54 1009.49 1010.13 1011.37 1012.94 1013.73 1014.57 1015.41 1015.96
1009.23 1008.08 1004.99 1004.20 1003.08 1002.39 1003.19 1002.93 1001.99 1001.33 1000.03 998.02 995.26 993.00 992.56 991.90 992.35 992.48 992.79 992.47 992.23 992.39 993.06 994.10 995.57 997.14 999.03 1000.66 1002.44 1003.78 1004.84 1005.58 1006.52 1007.51 1008.02 1009.38 1010.47 1011.72 1012.74 1013.75 1014.56 1015.38 1016.20 1016.75
1009.15 1008.16 1005.75 1003.65 1002.18 1001.98 1002.05 1001.98 1001.69 1000.70 999.65 998.71 997.27 995.31 993.01 992.51 991.78 991.79 992.24 992.58 992.23 992.60 993.02 994.43 996.27 998.13 999.72 1002.41 1003.84 1004.71 1005.61 1006.50 1007.44 1008.30 1009.35 1010.55 1011.68 1012.81 1013.61 1014.34 1015.04 1015.96 1016.51 1016.77
1009.37 1008.00 1005.66 1002.89 1002.24 1002.58 1002.50 1002.50 1001.87 1001.15 1000.02 998.66 997.33 995.87 995.58 993.20 992.47 992.07 991.87 992.30 993.07 993.64 993.73 995.18 997.42 999.05 1001.65 1003.21 1004.40 1005.23 1006.20 1007.26 1008.29 1009.33 1010.29 1011.22 1012.21 1013.58 1014.45 1015.03 1015.71 1016.29 1016.66 1016.85
1009.18 1007.72 1006.15 1003.81 1002.51 1002.96 1002.78 1002.60 1001.90 1001.52 1000.37 998.51 996.88 996.70 997.76 996.35 994.52 993.01 992.85 992.73 993.74 994.27 994.94 996.99 999.21 1001.15 1002.57 1003.71 1004.67 1005.83 1007.05 1008.20 1009.11 1010.02 1010.83 1011.69 1012.94 1014.13 1015.13 1015.79 1016.29 1016.54 1016.55 1016.90
1008.55 1007.07 1005.22 1003.90 1002.84 1002.39 1001.90 1001.53 1001.70 1000.69 999.49 998.66 997.62 997.92 999.28 998.50 997.73 994.96 993.54 993.91 994.21 994.78 997.54 999.29 1000.91 1002.40 1003.78 1004.74 1005.82 1006.84 1007.76 1008.65 1009.50 1010.56 1011.57 1012.90 1014.07 1015.10 1015.88 1016.35 1016.61 1016.78 1017.17 1017.75
1008.48 1006.98 1005.43 1003.52 1002.31 1001.98 1001.54 1000.90 1000.02 999.97 999.29 998.38 998.29 999.24 1000.48 999.33 998.12 996.15 994.62 994.76 995.51 997.83 999.60 1001.06 1002.34 1003.42 1004.61 1005.52 1006.46 1007.31 1007.88 1008.88 1010.00 1011.16 1012.35 1013.54 1014.22 1015.01 1015.95 1016.57 1016.91 1017.35 1017.96 1018.53
1008.18 1007.13 1005.34 1002.66 1001.88 1001.25 1000.64 999.10 998.55 998.22 997.92 997.61 998.48 1000.02 1000.66 1000.08 998.29 996.08 995.64 996.23 998.01 999.63 1001.12 1002.42 1003.54 1004.51 1005.58 1006.57 1007.16 1007.78 1008.71 1009.85 1010.97 1011.99 1012.99 1013.72 1014.57 1015.47 1016.35 1016.93 1017.62 1018.15 1018.78 1019.31
1007.69 1006.87 1005.45 1003.12 1002.09 1000.51 999.49 998.01 997.82 997.70 997.14 997.44 998.90 1000.73 1000.86 1000.69 999.81 998.30 998.00 998.95 1000.25 1001.48 1002.64 1003.81 1004.74 1005.78 1006.84 1007.61 1008.27 1008.82 1009.87 1010.76 1011.76 1012.53 1013.44 1014.34 1015.17 1016.08 1016.88 1017.67 1018.34 1018.95 1019.36 1019.73
1007.02 1006.46 1005.06 1003.43 1001.61 1001.03 1000.61 1000.29 999.71 998.61 997.50 997.52 999.01 1000.50 1001.36 1001.06 1000.47 1001.22 1001.13 1001.58 1002.41 1003.38 1004.42 1005.34 1006.16 1006.82 1007.69 1008.34 1009.06 1009.75 1011.06 1012.11 1012.81 1013.33 1014.18 1015.01 1015.67 1016.63 1017.53 1018.17 1018.82 1019.43 1019.81 1020.24
1006.32 1005.98 1005.44 1003.27 1002.11 1002.29 1002.86 1001.70 1001.14 999.91 998.44 998.57 999.72 1000.59 1001.26 1001.45 1002.18 1003.66 1003.71 1003.27 1004.59 1005.38 1006.23 1006.82 1007.42 1008.00 1008.55 1009.72 1010.20 1010.92 1011.93 1012.70 1013.50 1014.20 1014.99 1015.86 1016.68 1017.55 1018.31 1019.00 1019.49 1019.99 1020.31 1020.70
1006.03 1005.65 1005.10 1004.30 1003.59 1003.89 1004.35 1003.23 1000.69 1000.31 1000.71 999.75 999.77 1000.68 1001.63 1002.73 1003.83 1004.86 1005.25 1005.29 1005.81 1006.76 1007.61 1008.25 1008.67 1009.15 1009.98 1010.66 1011.14 1011.78 1012.91 1013.87 1014.73 1015.32 1016.30 1017.20 1017.93 1018.78 1019.45 1019.87 1020.24 1020.54 1020.82 1021.31
1008.54 1007.95 1006.89 1006.20 1005.63 1005.92 1005.50 1004.01 1002.78 1003.09 1001.01 1000.49 1001.24 1002.24 1003.33 1004.21 1005.21 1005.98 1006.56 1006.70 1007.03 1007.85 1008.96 1009.58 1009.78 1010.45 1011.45 1011.90 1012.22 1013.21 1014.26 1015.40 1016.06 1016.79 1017.72 1018.43 1019.13 1019.71 1020.25 1020.60 1020.95 1021.24 1021.29 1021.52
1009.70 1010.65 1010.08 1009.44 1009.07 1008.72 1007.58 1006.51 1005.30 1003.54 1002.42 1002.38 1003.30 1004.08 1004.01 1005.60 1006.40 1007.32 1007.88 1008.18 1008.59 1009.10 1010.02 1010.77 1011.10 1011.85 1012.96 1013.59 1013.88 1014.49 1015.77 1016.46 1017.15 1017.81 1018.68 1019.44 1020.04 1020.52 1020.93 1021.17 1021.44 1021.65 1021.76 1021.96
1010.84 1011.10 1010.59 1010.25 1009.86 1009.26 1008.28 1007.37 1006.04 1004.70 1004.09 1004.27 1004.72 1005.93 1006.09 1006.75 1007.73 1008.43 1009.16 1009.58 1009.88 1010.44 1010.96 1011.71 1012.20 1012.81 1013.77 1014.77 1015.46 1016.04 1016.89 1017.60 1018.09 1018.80 1019.57 1020.36 1020.79 1021.16 1021.54 1021.84 1022.31 1022.43 1022.86 1023.16
1012.46 1012.01 1011.50 1010.56 1010.08 1009.56 1009.50 1008.63 1007.72 1006.59 1006.17 1006.23 1006.54 1007.17 1007.38 1007.54 1008.98 1009.41 1010.33 1010.69 1011.04 1011.48 1011.87 1012.53 1013.22 1014.06 1015.00 1015.96 1016.73 1017.53 1017.97 1018.41 1018.92 1019.59 1020.30 1020.84 1021.49 1022.15 1023.10 1024.06 1024.77 1025.36 1026.23 1025.92
1013.05 1012.80 1012.49 1011.81 1011.20 1010.94 1010.46 1009.87 1009.22 1008.20 1007.93 1008.08 1008.14 1008.50 1009.24 1009.30 1010.10 1010.73 1011.41 1011.94 1012.10 1012.27 1012.83 1013.61 1014.54 1015.19 1016.08 1016.80 1017.60 1018.30 1018.74 1019.03 1019.43 1020.04 1020.66 1021.31 1021.96 1022.74 1023.76 1024.90 1026.50 1027.76 1027.75 1027.68
Wind_Speed
14 11 15 19 18 20 20 22 21 18 15 20 21 20 23 24 14 13 20 17 20 21 20 19 13 14 16 17 16 15 16 15 10 10 10 8 8 7 6 5 5 6 5 5
12 18 21 19 20 21 23 24 24 18 22 20 21 17 18 21 22 22 18 18 19 16 19 12 15 16 14 17 17 19 19 14 13 10 7 6 6 6 6 6 6 6 6 6
16 22 19 14 16 21 21 23 19 18 15 23 22 23 21 21 20 22 24 20 19 19 19 15 15 18 15 17 21 22 21 19 16 14 10 8 8 8 7 8 6 7 7 11
16 19 17 15 18 19 20 19 18 18 17 18 25 19 24 25 25 25 26 23 22 20 17 15 17 17 19 21 21 20 18 16 16 16 13 11 8 8 8 8 7 8 12 13
13 11 11 16 19 13 18 14 13 17 17 16 24 18 16 20 19 23 26 27 23 21 17 17 19 21 22 20 19 17 16 17 16 15 13 11 13 9 8 9 13 11 9 12
22 19 17 15 13 10 12 14 14 14 15 16 20 19 19 18 18 20 25 25 22 21 18 18 18 21 19 21 20 19 20 20 18 15 14 19 18 15 12 11 10 9 9 8
7 15 13 11 13 9 12 10 7 10 10 15 19 22 17 21 18 19 21 20 22 20 18 17 19 20 20 21 20 16 16 17 16 15 19 19 20 18 16 14 10 9 7 7
4 4 9 11 17 9 14 17 10 9 14 16 18 14 19 27 14 10 2 9 20 21 18 18 19 19 21 20 20 19 16 17 16 18 20 18 19 12 10 7 9 7 8 7
5 7 5 8 8 5 7 15 20 11 15 11 12 18 13 23 22 20 16 12 15 22 21 19 20 18 20 20 20 22 19 18 18 19 19 18 15 14 12 13 14 9 10 9
5 9 10 2 6 13 18 8 11 9 8 14 15 20 16 19 21 19 19 18 19 21 21 19 19 19 18 18 16 19 18 19 20 21 18 16 16 13 14 13 13 12 11 11
4 6 5 4 10 13 9 14 12 8 14 6 11 13 17 18 23 22 19 14 16 20 22 19 20 21 21 20 16 16 18 19 17 17 16 15 13 15 14 13 14 13 12 10
6 5 7 17 15 10 14 18 18 9 13 13 13 5 16 22 11 22 20 15 12 19 21 21 22 23 23 20 18 16 16 18 16 16 17 16 14 15 15 14 14 13 12 11
2 5 6 6 5 5 4 7 20 19 14 12 13 3 15 5 13 12 18 18 11 14 19 20 23 22 19 17 17 18 18 18 18 17 18 17 16 15 15 15 14 13 12 11
12 5 14 13 9 1 4 8 21 18 9 15 15 6 13 17 11 13 10 11 13 18 21 19 19 18 17 16 18 20 19 18 18 17 18 18 17 16 15 14 13 10 12 13
2 7 15 21 21 17 15 15 4 23 23 15 14 8 11 16 17 20 10 14 17 21 22 20 20 17 17 18 19 20 20 19 18 19 19 18 18 16 14 13 14 14 13 11
3 5 5 12 15 16 12 17 16 15 23 24 16 6 4 17 21 16 13 18 20 20 19 18 19 20 19 20 19 19 20 19 19 20 21 19 17 17 15 14 14 13 13 12
3 4 5 5 7 7 6 17 16 13 18 17 7 6 8 13 8 14 16 18 22 18 18 19 19 19 19 19 19 20 20 20 21 20 19 18 17 17 15 14 13 13 12 11
3 2 4 6 4 3 5 8 11 9 8 9 4 9 7 4 7 13 16 19 17 17 19 18 18 20 19 19 20 20 19 21 20 20 19 17 17 16 15 14 14 12 11 10
5 3 4 4 3 3 10 11 8 3 5 8 5 6 7 6 15 15 15 18 17 18 17 17 18 21 21 20 20 22 22 19 19 19 18 17 16 16 15 14 13 11 11 10
8 6 3 4 4 7 7 17 17 13 6 8 7 7 9 3 7 5 8 24 20 20 17 18 20 20 21 19 19 22 20 20 19 19 18 17 16 15 15 13 13 11 10 10
9 6 7 7 3 5 15 26 13 2 5 2 8 6 11 7 8 10 12 19 22 20 20 19 19 19 19 18 19 22 19 20 19 19 18 17 16 15 13 13 11 10 11 10
6 8 6 7 6 4 22 14 6 8 8 5 13 15 17 17 16 14 14 19 23 23 20 20 19 19 18 17 20 22 21 19 19 19 18 16 15 11 11 13 11 10 9 9
3 4 5 5 4 8 15 10 11 6 6 12 14 18 19 17 17 15 15 17 19 22 18 17 18 21 18 16 17 22 20 19 19 19 18 16 15 14 12 12 11 8 8 7
8 4 3 5 1 9 13 11 12 7 11 15 16 19 19 19 17 18 15 15 17 18 19 17 20 23 21 19 19 20 19 18 19 19 18 15 15 14 13 10 9 8 8 6
4 8 7 4 4 7 12 13 11 11 15 16 15 18 19 19 16 17 16 16 17 17 18 18 20 21 21 20 19 18 18 18 19 18 17 16 14 15 14 15 12 11 13 13
3 4 3 3 9 3 7 11 11 13 12 16 20 17 17 21 18 17 16 14 16 18 20 21 21 19 20 19 19 17 17 17 18 17 13 12 13 12 13 13 14 19 18 20
Wind_Direction
208 244 241 249 244 254 271 274 271 271 250 248 248 241 234 238 231 235 233 225 224 229 227 219 218 209 187 188 174 160 181 167 159 166 170 166 167 164 163 146 128 154 125 148
253 248 257 263 268 263 260 257 258 259 262 235 239 244 238 245 235 244 241 236 232 223 217 198 210 183 183 178 162 166 179 152 162 169 167 163 160 158 153 147 149 132 136 143
267 263 286 259 263 256 250 249 255 259 255 248 267 248 239 238 242 247 244 236 234 228 212 197 200 177 169 175 174 174 176 157 173 152 139 136 126 133 154 152 129 128 127 87
274 266 267 265 265 252 259 243 248 247 253 248 217 248 232 231 229 226 236 229 224 225 216 191 190 173 176 184 183 169 165 160 164 155 143 157 155 125 82 96 94 86 103 115
247 276 250 261 261 258 248 268 266 242 249 237 259 235 243 226 215 214 222 221 216 210 198 186 182 184 192 184 175 152 148 158 154 153 146 125 97 109 115 129 120 123 139 150
260 267 270 278 271 259 228 248 236 241 248 243 237 243 223 222 218 215 220 213 207 203 186 181 181 186 182 174 147 144 155 149 154 136 117 116 134 140 141 143 148 164 156 142
277 257 219 244 244 206 227 224 224 218 219 234 216 241 234 205 221 226 219 208 206 200 180 180 171 184 170 160 149 136 143 133 132 131 125 143 144 148 150 158 168 140 139 114
283 261 196 200 227 222 221 212 228 218 220 231 214 229 210 238 210 212 312 276 198 199 183 183 169 176 168 163 141 136 133 136 141 131 137 149 143 148 151 135 119 114 81 107
292 240 246 258 237 260 231 226 248 304 279 265 228 218 233 216 219 234 237 240 215 190 190 175 162 169 170 152 153 144 140 148 142 142 145 145 145 148 118 112 89 96 102 103
338 285 248 202 270 233 226 278 216 215 251 244 233 221 213 207 212 218 216 212 211 194 187 167 154 153 145 143 142 134 145 150 142 145 141 140 143 132 108 106 116 106 106 106
255 245 289 220 208 263 208 229 231 255 248 270 283 210 205 215 197 206 207 214 198 193 180 164 146 138 142 132 122 133 140 138 141 126 140 116 111 111 116 115 113 104 109 111
211 267 249 257 256 253 234 221 233 224 216 232 266 297 336 201 190 195 193 200 200 189 179 158 140 142 139 120 129 129 127 124 117 116 113 107 111 120 113 111 110 115 107 98
188 235 286 260 214 180 215 224 227 251 277 260 248 239 348 248 186 187 186 188 155 182 177 150 143 128 125 128 126 123 122 118 117 119 120 120 116 114 109 106 106 110 105 96
239 232 245 265 301 265 211 235 231 225 240 253 245 236 290 329 318 174 176 165 172 176 155 115 116 127 121 118 119 121 121 120 119 116 115 114 112 109 106 105 106 99 92 85
305 258 250 253 266 271 268 258 251 225 234 246 273 340 310 302 300 301 146 167 164 148 124 129 129 120 118 116 117 120 121 116 114 113 111 109 110 106 102 103 100 89 86 88
221 273 292 266 250 243 234 246 233 224 237 245 259 287 202 282 297 256 188 156 140 125 124 128 123 121 119 119 118 116 112 111 111 112 115 120 118 115 110 103 97 94 91 89
261 289 291 289 326 186 214 223 222 224 227 229 261 40 286 298 315 181 152 139 133 126 125 120 117 114 113 114 118 112 110 116 117 117 120 116 114 108 106 103 101 97 96 99
272 238 263 287 286 244 343 322 210 215 228 220 131 115 255 307 23 59 106 114 116 118 115 112 112 109 109 111 109 109 110 115 118 117 114 114 112 110 107 105 104 107 103 100
299 261 275 274 277 129 23 16 359 292 205 180 107 146 155 149 71 38 73 83 96 99 102 105 108 109 111 109 110 113 113 115 115 112 112 113 111 110 109 105 103 103 101 95
317 224 241 295 5 43 13 338 331 300 177 138 132 174 166 245 89 63 80 100 94 95 99 106 107 107 106 106 112 113 112 115 112 112 110 109 107 106 106 105 102 101 99 92
348 354 1 354 53 85 355 333 302 247 29 143 133 151 97 80 76 98 105 100 101 100 103 102 102 104 108 115 113 109 108 106 107 106 104 103 103 102 104 104 102 98 92 93
347 321 359 333 2 39 351 341 21 311 312 110 68 87 106 101 100 95 101 106 106 104 102 101 101 100 103 108 113 109 106 109 107 106 106 104 106 106 104 100 96 96 98 93
12 23 307 332 16 304 302 319 316 325 47 85 103 104 105 106 102 95 98 102 103 104 104 104 104 102 98 100 108 109 109 110 109 106 106 106 105 101 101 99 99 97 86 82
347 36 276 290 50 329 357 356 0 46 82 101 98 106 104 101 101 99 95 99 100 103 107 110 111 107 105 104 103 105 110 112 109 108 107 107 103 97 88 81 73 76 77 76
342 308 324 284 304 315 11 13 22 56 88 88 85 99 100 96 99 104 99 102 105 107 103 104 105 105 105 106 105 110 115 115 111 110 111 107 98 89 80 59 57 71 50 28
327 318 336 329 330 14 11 26 44 59 84 102 102 89 90 98 95 99 98 106 106 107 111 107 104 104 105 105 108 112 114 113 112 115 111 108 108 103 98 95 87 62 64 56